SCP
0 0 0 0 1 1 1 1 1 1 1 3 1 1 1 1 1 1 0 0 0 0 0 0 1 1 2 1 1 1 1 1 1 1 0 0 0 0 0 0 0 0 0
0 0 0 1 2 1 2 2 1 2 2 3 4 2 1 2 1 1 1 1 0 0 0 0 1 1 2 1 1 1 1 1 1 1 0 0 0 0 0 0 0 0 0
0 0 0 0 3 2 2 2 2 2 3 4 4 5 4 3 4 3 3 2 1 1 1 1 2 2 2 2 2 2 1 0 0 0 0 0 0 0 0 0 0 0 0
0 0 0 0 2 3 2 1 1 2 5 6 6 3 4 5 3 4 4 4 2 2 3 3 4 3 3 2 2 0 0 0 0 0 0 0 0 0 0 0 0 0 0
0 0 0 0 0 4 3 2 1 3 4 5 4 4 4 4 6 7 5 4 4 4 4 4 3 3 2 2 1 0 0 0 1 1 1 0 0 0 0 0 0 0 0
0 0 0 0 0 6 4 3 2 3 2 3 4 4 5 4 5 6 6 6 5 3 2 2 2 2 1 1 1 1 1 0 1 1 0 0 1 0 0 0 0 0 0
0 0 0 0 0 3 5 3 3 4 3 4 3 4 3 3 3 5 4 3 2 3 1 1 1 1 1 1 0 0 0 0 0 0 0 0 0 0 0 0 0 0 0
0 0 0 0 0 0 4 5 4 4 3 3 4 4 3 2 4 2 2 2 2 2 1 1 1 1 0 0 0 0 0 0 0 0 0 0 0 0 0 0 0 0 0
0 0 0 0 0 0 2 4 5 7 5 2 2 3 3 3 3 2 2 2 1 1 0 0 0 0 0 0 0 0 0 0 0 0 0 0 0 0 0 0 0 0 0
0 0 0 0 0 0 0 2 7 7 7 7 5 4 4 2 2 2 2 1 1 0 0 0 0 0 0 0 0 0 0 0 0 0 0 0 0 0 0 0 0 0 0
-0 -0 0 0 0 0 0 1 3 9 7 7 4 3 2 2 1 1 1 0 0 0 0 0 0 0 0 0 0 0 0 0 0 0 0 0 0 0 0 0 0 0 0
-1 -0 0 0 0 0 0 0 9 8 6 4 3 2 1 0 0 0 0 0 0 0 0 0 0 0 0 0 0 0 0 0 0 0 0 0 0 0 0 0 0 0 0
-0 -0 0 0 0 0 3 8 9 6 4 1 0 0 0 0 0 0 0 0 0 0 0 0 0 0 0 0 0 0 0 0 0 0 0 0 0 0 0 0 0 0 0
3 4 4 5 5 7 9 7 5 3 1 0 0 0 0 0 0 0 0 0 0 0 0 0 0 0 0 0 0 0 0 0 0 0 0 0 0 0 0 0 0 0 0
3 4 6 6 3 3 5 3 2 0 0 0 0 0 0 0 0 0 0 0 0 0 0 0 0 0 0 0 0 0 0 0 0 0 0 0 0 0 0 0 0 0 0
2 3 2 3 3 1 0 0 0 0 0 0 0 0 0 0 0 0 0 0 0 0 0 0 0 0 0 0 0 0 0 0 0 0 0 0 0 0 0 0 0 0 0
0 1 1 1 0 0 0 0 0 0 0 0 0 0 0 0 0 0 0 0 0 0 0 0 0 0 0 0 0 0 0 0 0 0 0 0 0 0 0 0 0 0 0
0 0 0 0 0 0 0 0 0 0 0 0 0 0 0 0 0 0 0 0 0 0 0 0 0 0 0 0 0 0 0 0 0 0 0 0 0 0 0 0 0 0 0
0 0 0 0 0 0 0 0 0 0 0 0 0 0 0 0 0 0 0 0 0 0 0 0 0 0 0 0 0 0 0 0 0 0 0 0 0 0 0 0 0 0 0
-0 0 0 0 0 0 0 0 0 0 0 0 0 0 0 0 0 0 0 0 0 0 0 0 0 0 0 0 0 0 0 0 0 0 0 0 0 0 0 0 0 0 0
-0 -0 -0 0 0 0 0 0 0 0 0 0 0 0 0 0 0 0 0 0 0 0 0 0 0 0 0 0 0 0 0 0 0 0 0 0 0 0 0 0 0 0 0
-0 -0 0 -0 0 0 0 0 0 0 0 0 0 0 0 0 0 0 0 0 0 0 0 0 0 0 0 0 0 0 0 0 0 0 0 0 0 0 0 0 0 0 0
-0 0 -0 0 0 0 0 0 0 0 0 0 0 0 0 0 0 0 0 0 0 0 0 0 0 0 0 0 0 0 0 0 0 0 0 0 0 0 0 0 0 0 0
-0 -0 -0 -0 -0 0 0 0 0 0 0 0 0 0 0 0 0 0 0 0 0 0 0 0 0 0 0 0 0 0 0 0 0 0 0 0 0 0 0 0 0 0 0
0 0 0 0 0 0 0 0 0 0 0 0 0 0 0 0 0 0 0 0 0 0 0 0 0 0 0 0 0 0 0 0 0 0 0 0 0 0 0 0 0 0 0
0 0 0 0 0 0 0 0 0 0 0 0 0 0 0 0 0 0 0 0 0 0 0 0 0 0 0 0 0 0 0 0 0 0 0 0 0 0 0 0 0 0 0
Wind_Speed_500mb
55 55 42 45 40 62 77 96 90 74 66 73 68 63 69 57 49 47 44 39 36 33 32 30 26 28 39 45 41 40 44 50 54 57 63 61 53 57 54 47 39 47 44
70 69 61 52 43 50 70 93 95 87 89 77 74 70 66 63 52 46 50 43 46 42 34 31 28 25 24 30 42 48 48 49 50 39 45 47 52 44 33 29 34 33 38
74 68 71 62 59 56 68 80 88 89 87 75 85 78 66 59 59 61 56 61 50 45 39 35 31 32 36 37 37 48 55 49 48 52 36 19 15 36 52 45 40 40 44
94 82 75 74 75 74 65 76 92 92 93 87 82 80 70 81 79 73 64 56 51 48 43 37 37 37 38 40 34 48 49 37 44 36 34 36 40 42 36 49 47 47 41
102 102 90 86 76 79 81 79 96 99 97 96 80 74 75 84 93 73 67 62 61 53 46 42 39 44 41 43 43 45 42 36 35 29 32 32 33 36 37 42 51 53 52
88 99 83 73 79 92 83 77 106 107 104 87 88 92 80 76 72 76 72 62 57 42 41 46 47 49 46 40 40 33 31 29 29 28 28 30 31 34 32 40 50 53 55
79 90 79 70 68 86 82 84 97 107 104 96 96 82 71 66 68 62 63 48 44 43 53 55 48 43 38 32 24 21 23 23 22 27 28 29 29 33 36 43 48 48 54
72 92 83 89 83 83 76 93 99 105 107 93 93 83 66 71 68 60 50 45 46 48 50 45 39 32 26 23 17 16 14 17 20 27 30 34 35 33 28 30 34 38 38
59 76 90 95 91 91 84 85 102 106 109 101 93 81 71 72 66 61 49 46 48 40 38 37 31 29 24 20 19 20 23 27 20 20 25 25 24 24 26 28 25 25 23
56 54 77 93 98 97 90 75 108 109 106 97 86 74 68 68 62 54 48 44 40 43 36 34 32 29 25 26 25 21 16 13 13 16 17 20 23 24 26 27 28 29 22
60 72 72 80 103 105 89 79 102 112 99 88 83 74 70 62 55 51 51 43 42 39 38 34 32 28 24 18 13 9 8 14 16 19 22 25 27 29 30 32 33 36 37
62 69 78 82 105 106 92 95 102 100 97 86 76 72 67 61 58 57 51 48 46 44 41 35 30 26 20 15 11 12 17 20 22 25 26 29 32 33 33 32 33 36 37
42 57 64 81 93 92 92 84 90 91 87 82 75 72 67 63 61 57 57 52 50 45 39 31 24 18 14 12 15 18 20 23 28 33 35 35 30 26 27 28 32 38 42
38 44 63 71 74 86 91 85 85 95 92 86 79 73 69 71 62 60 62 55 50 44 34 26 22 17 14 18 20 23 27 33 36 35 27 17 13 14 18 29 36 42 46
37 66 76 80 81 87 90 88 100 100 93 84 83 78 77 72 66 67 60 53 44 36 29 26 18 16 15 17 21 26 26 22 16 8 4 8 14 22 30 38 41 40 35
24 49 68 83 93 96 93 103 109 104 96 90 84 87 81 71 66 59 51 45 37 30 24 17 14 13 13 17 18 17 14 8 5 4 2 8 21 29 31 25 31 30 26
49 54 64 79 75 92 104 111 108 101 97 96 94 84 74 68 60 53 44 35 29 22 16 11 4 6 10 12 16 16 12 9 8 3 3 10 15 22 28 30 22 21 18
70 74 76 70 70 88 104 104 104 102 99 95 87 77 68 61 51 41 34 28 22 16 11 7 5 8 13 16 14 11 10 9 8 6 4 8 15 23 27 22 23 16 17
73 77 81 78 73 92 98 108 105 101 94 86 78 67 61 52 41 33 27 23 17 16 13 12 11 11 11 11 7 6 8 6 4 4 7 13 21 20 21 22 23 17 13
90 92 91 91 93 96 92 106 100 93 85 73 65 53 45 37 31 25 23 20 15 14 15 16 14 13 10 8 5 6 6 5 3 6 8 14 16 17 15 17 23 27 29
84 85 82 78 82 90 88 99 90 81 70 61 52 42 33 29 25 23 21 19 19 21 20 16 17 13 12 10 9 8 8 6 3 7 12 7 10 11 15 20 27 35 41
77 81 83 84 82 73 65 80 75 62 54 50 45 39 32 26 23 21 25 25 25 22 20 16 14 15 12 12 13 12 12 13 20 18 11 14 9 15 24 31 36 38 39
80 79 79 73 64 63 59 64 56 49 46 43 39 32 28 26 28 33 37 34 28 23 21 13 12 14 12 12 11 14 17 20 14 10 8 8 16 26 30 32 32 33 36
81 77 80 77 71 59 55 53 44 40 35 33 30 26 24 30 33 31 29 27 27 24 20 12 12 9 9 11 13 15 16 17 8 4 9 18 20 25 30 34 36 39 43
64 61 58 62 57 48 44 34 29 24 25 24 22 22 24 26 31 32 31 26 26 20 12 11 8 9 12 13 14 15 13 13 14 18 24 26 28 29 31 34 38 41 40
53 52 50 48 43 34 30 24 18 13 15 21 23 21 23 26 23 23 32 31 26 22 19 17 13 15 15 15 16 19 24 35 32 31 33 34 36 41 44 44 44 42 39
Wind_Direction_500mb
228 221 214 209 203 195 206 206 204 210 206 205 205 202 208 209 208 216 223 220 220 224 224 226 230 241 243 241 248 256 261 266 274 282 282 284 286 283 285 285 292 292 298
241 233 228 233 216 203 202 203 209 219 211 213 214 213 212 213 216 215 227 231 232 230 231 233 234 248 249 251 259 258 262 268 276 280 287 294 296 299 296 295 302 297 297
228 227 224 220 231 220 207 205 213 211 208 215 211 211 218 217 212 211 221 231 233 237 233 244 236 241 255 262 271 270 269 269 275 286 284 297 280 295 299 301 301 298 302
240 230 226 223 228 235 230 212 203 208 216 216 214 219 224 217 218 217 214 223 234 238 244 242 241 257 260 267 275 275 269 267 280 283 284 283 284 291 294 297 299 299 301
232 231 233 234 229 230 227 215 207 211 216 216 218 219 223 225 223 222 219 227 232 238 243 236 237 247 255 260 265 272 280 276 277 283 285 287 282 284 294 304 302 301 307
230 226 227 226 228 228 224 216 209 209 213 210 214 220 221 224 227 227 223 218 220 226 239 246 240 244 256 260 266 261 266 273 275 279 284 291 298 304 305 307 306 304 307
225 221 227 222 220 216 215 213 210 206 206 208 213 216 216 217 215 214 212 209 218 215 226 233 237 246 251 253 253 251 255 267 281 290 293 299 297 298 300 300 300 304 307
229 223 232 222 217 212 215 211 210 205 204 207 212 208 214 216 215 218 216 207 219 222 227 238 237 237 232 231 239 251 249 266 279 282 288 291 291 294 295 305 305 312 312
231 230 234 230 221 220 217 216 209 205 202 204 210 206 207 210 212 212 214 220 218 209 212 217 221 215 217 223 237 236 246 259 258 263 271 278 280 287 295 295 305 303 321
260 243 235 228 223 226 216 217 209 207 205 209 209 207 201 205 210 211 217 204 197 204 199 207 208 210 217 243 250 244 246 262 261 263 276 281 282 289 297 302 304 305 302
269 254 241 235 227 220 212 205 203 202 203 202 200 197 198 195 197 203 199 193 195 198 199 198 199 211 218 204 204 210 244 263 271 285 286 285 292 296 296 292 292 292 294
259 258 243 228 217 209 201 199 196 197 197 194 190 190 189 187 189 186 186 186 185 185 187 191 192 190 187 198 226 247 250 265 277 283 286 291 295 296 294 294 298 301 308
231 245 235 203 200 189 186 178 180 188 186 184 183 180 182 179 177 186 177 181 180 176 176 182 187 189 206 242 258 272 280 291 294 294 298 296 295 291 296 302 306 309 313
163 161 166 163 165 168 170 158 163 176 174 175 173 170 173 170 178 178 170 171 174 176 175 182 201 207 234 256 273 287 299 302 302 305 303 297 293 304 318 319 314 314 316
129 130 129 133 138 141 150 153 158 164 165 165 166 166 164 165 170 163 166 171 173 172 181 196 206 240 257 278 295 307 315 323 344 11 343 1 337 321 317 321 319 320 320
88 114 126 126 136 144 145 144 149 153 158 160 160 157 156 159 161 166 165 169 168 174 187 205 238 265 302 328 337 350 5 26 77 98 304 321 319 322 321 331 336 331 323
77 99 113 122 130 139 142 147 149 151 152 152 150 151 154 155 157 156 161 166 174 182 198 216 251 333 6 24 30 49 44 61 65 147 251 331 340 336 332 343 357 0 6
84 97 106 116 124 128 139 139 141 143 144 145 146 149 151 150 151 156 165 172 174 176 168 140 79 54 69 68 66 53 27 24 48 61 29 333 329 336 346 7 8 19 13
107 109 117 118 114 121 129 137 136 139 139 140 140 141 146 148 153 160 163 158 156 147 131 107 100 93 91 89 72 14 352 355 9 17 354 347 335 351 10 12 10 17 7
116 116 124 131 129 122 131 134 132 133 132 133 135 137 141 148 153 153 151 145 142 135 121 123 119 110 93 88 56 30 14 350 326 326 346 343 11 11 7 355 346 346 344
119 124 123 129 136 132 126 126 127 125 129 133 134 137 140 144 147 149 150 151 151 145 136 133 120 107 91 76 59 38 13 16 327 36 47 55 52 357 353 346 337 336 330
119 120 117 115 121 129 124 113 115 122 129 131 131 131 133 139 146 154 149 148 146 149 145 139 118 87 69 55 55 38 25 57 77 83 78 58 7 330 331 333 331 330 327
116 120 123 120 119 121 115 109 112 117 120 122 123 129 133 137 148 154 150 147 146 144 142 141 99 79 59 64 62 58 88 92 88 76 51 18 344 345 354 1 3 3 3
116 117 116 113 109 108 103 100 102 105 114 119 122 126 137 144 148 152 151 150 155 165 160 132 102 87 91 95 89 84 82 99 89 3 351 8 26 38 36 29 22 15 13
117 115 107 104 104 105 102 102 103 108 118 127 133 137 144 145 154 156 160 167 169 176 181 154 139 122 127 111 98 90 86 62 51 64 77 71 57 43 31 24 16 13 22
111 106 104 101 98 96 97 100 102 114 129 129 124 120 137 145 145 161 171 169 170 165 159 143 133 120 105 97 93 80 78 84 83 79 70 59 45 32 21 17 18 23 34
Wind_Speed_850mb
55 55 42 45 40 62 77 96 90 74 66 73 68 63 69 57 49 47 44 39 36 33 32 30 26 28 39 45 41 40 44 50 54 57 63 61 53 57 54 47 39 47 44
70 69 61 52 43 50 70 93 95 87 89 77 74 70 66 63 52 46 50 43 46 42 34 31 28 25 24 30 42 48 48 49 50 39 45 47 52 44 33 29 34 33 38
74 68 71 62 59 56 68 80 88 89 87 75 85 78 66 59 59 61 56 61 50 45 39 35 31 32 36 37 37 48 55 49 48 52 36 19 15 36 52 45 40 40 44
94 82 75 74 75 74 65 76 92 92 93 87 82 80 70 81 79 73 64 56 51 48 43 37 37 37 38 40 34 48 49 37 44 36 34 36 40 42 36 49 47 47 41
102 102 90 86 76 79 81 79 96 99 97 96 80 74 75 84 93 73 67 62 61 53 46 42 39 44 41 43 43 45 42 36 35 29 32 32 33 36 37 42 51 53 52
88 99 83 73 79 92 83 77 106 107 104 87 88 92 80 76 72 76 72 62 57 42 41 46 47 49 46 40 40 33 31 29 29 28 28 30 31 34 32 40 50 53 55
79 90 79 70 68 86 82 84 97 107 104 96 96 82 71 66 68 62 63 48 44 43 53 55 48 43 38 32 24 21 23 23 22 27 28 29 29 33 36 43 48 48 54
72 92 83 89 83 83 76 93 99 105 107 93 93 83 66 71 68 60 50 45 46 48 50 45 39 32 26 23 17 16 14 17 20 27 30 34 35 33 28 30 34 38 38
59 76 90 95 91 91 84 85 102 106 109 101 93 81 71 72 66 61 49 46 48 40 38 37 31 29 24 20 19 20 23 27 20 20 25 25 24 24 26 28 25 25 23
56 54 77 93 98 97 90 75 108 109 106 97 86 74 68 68 62 54 48 44 40 43 36 34 32 29 25 26 25 21 16 13 13 16 17 20 23 24 26 27 28 29 22
60 72 72 80 103 105 89 79 102 112 99 88 83 74 70 62 55 51 51 43 42 39 38 34 32 28 24 18 13 9 8 14 16 19 22 25 27 29 30 32 33 36 37
62 69 78 82 105 106 92 95 102 100 97 86 76 72 67 61 58 57 51 48 46 44 41 35 30 26 20 15 11 12 17 20 22 25 26 29 32 33 33 32 33 36 37
42 57 64 81 93 92 92 84 90 91 87 82 75 72 67 63 61 57 57 52 50 45 39 31 24 18 14 12 15 18 20 23 28 33 35 35 30 26 27 28 32 38 42
38 44 63 71 74 86 91 85 85 95 92 86 79 73 69 71 62 60 62 55 50 44 34 26 22 17 14 18 20 23 27 33 36 35 27 17 13 14 18 29 36 42 46
37 66 76 80 81 87 90 88 100 100 93 84 83 78 77 72 66 67 60 53 44 36 29 26 18 16 15 17 21 26 26 22 16 8 4 8 14 22 30 38 41 40 35
24 49 68 83 93 96 93 103 109 104 96 90 84 87 81 71 66 59 51 45 37 30 24 17 14 13 13 17 18 17 14 8 5 4 2 8 21 29 31 25 31 30 26
49 54 64 79 75 92 104 111 108 101 97 96 94 84 74 68 60 53 44 35 29 22 16 11 4 6 10 12 16 16 12 9 8 3 3 10 15 22 28 30 22 21 18
70 74 76 70 70 88 104 104 104 102 99 95 87 77 68 61 51 41 34 28 22 16 11 7 5 8 13 16 14 11 10 9 8 6 4 8 15 23 27 22 23 16 17
73 77 81 78 73 92 98 108 105 101 94 86 78 67 61 52 41 33 27 23 17 16 13 12 11 11 11 11 7 6 8 6 4 4 7 13 21 20 21 22 23 17 13
90 92 91 91 93 96 92 106 100 93 85 73 65 53 45 37 31 25 23 20 15 14 15 16 14 13 10 8 5 6 6 5 3 6 8 14 16 17 15 17 23 27 29
84 85 82 78 82 90 88 99 90 81 70 61 52 42 33 29 25 23 21 19 19 21 20 16 17 13 12 10 9 8 8 6 3 7 12 7 10 11 15 20 27 35 41
77 81 83 84 82 73 65 80 75 62 54 50 45 39 32 26 23 21 25 25 25 22 20 16 14 15 12 12 13 12 12 13 20 18 11 14 9 15 24 31 36 38 39
80 79 79 73 64 63 59 64 56 49 46 43 39 32 28 26 28 33 37 34 28 23 21 13 12 14 12 12 11 14 17 20 14 10 8 8 16 26 30 32 32 33 36
81 77 80 77 71 59 55 53 44 40 35 33 30 26 24 30 33 31 29 27 27 24 20 12 12 9 9 11 13 15 16 17 8 4 9 18 20 25 30 34 36 39 43
64 61 58 62 57 48 44 34 29 24 25 24 22 22 24 26 31 32 31 26 26 20 12 11 8 9 12 13 14 15 13 13 14 18 24 26 28 29 31 34 38 41 40
53 52 50 48 43 34 30 24 18 13 15 21 23 21 23 26 23 23 32 31 26 22 19 17 13 15 15 15 16 19 24 35 32 31 33 34 36 41 44 44 44 42 39
Wind_Direction_850mb
228 221 214 209 203 195 206 206 204 210 206 205 205 202 208 209 208 216 223 220 220 224 224 226 230 241 243 241 248 256 261 266 274 282 282 284 286 283 285 285 292 292 298
241 233 228 233 216 203 202 203 209 219 211 213 214 213 212 213 216 215 227 231 232 230 231 233 234 248 249 251 259 258 262 268 276 280 287 294 296 299 296 295 302 297 297
228 227 224 220 231 220 207 205 213 211 208 215 211 211 218 217 212 211 221 231 233 237 233 244 236 241 255 262 271 270 269 269 275 286 284 297 280 295 299 301 301 298 302
240 230 226 223 228 235 230 212 203 208 216 216 214 219 224 217 218 217 214 223 234 238 244 242 241 257 260 267 275 275 269 267 280 283 284 283 284 291 294 297 299 299 301
232 231 233 234 229 230 227 215 207 211 216 216 218 219 223 225 223 222 219 227 232 238 243 236 237 247 255 260 265 272 280 276 277 283 285 287 282 284 294 304 302 301 307
230 226 227 226 228 228 224 216 209 209 213 210 214 220 221 224 227 227 223 218 220 226 239 246 240 244 256 260 266 261 266 273 275 279 284 291 298 304 305 307 306 304 307
225 221 227 222 220 216 215 213 210 206 206 208 213 216 216 217 215 214 212 209 218 215 226 233 237 246 251 253 253 251 255 267 281 290 293 299 297 298 300 300 300 304 307
229 223 232 222 217 212 215 211 210 205 204 207 212 208 214 216 215 218 216 207 219 222 227 238 237 237 232 231 239 251 249 266 279 282 288 291 291 294 295 305 305 312 312
231 230 234 230 221 220 217 216 209 205 202 204 210 206 207 210 212 212 214 220 218 209 212 217 221 215 217 223 237 236 246 259 258 263 271 278 280 287 295 295 305 303 321
260 243 235 228 223 226 216 217 209 207 205 209 209 207 201 205 210 211 217 204 197 204 199 207 208 210 217 243 250 244 246 262 261 263 276 281 282 289 297 302 304 305 302
269 254 241 235 227 220 212 205 203 202 203 202 200 197 198 195 197 203 199 193 195 198 199 198 199 211 218 204 204 210 244 263 271 285 286 285 292 296 296 292 292 292 294
259 258 243 228 217 209 201 199 196 197 197 194 190 190 189 187 189 186 186 186 185 185 187 191 192 190 187 198 226 247 250 265 277 283 286 291 295 296 294 294 298 301 308
231 245 235 203 200 189 186 178 180 188 186 184 183 180 182 179 177 186 177 181 180 176 176 182 187 189 206 242 258 272 280 291 294 294 298 296 295 291 296 302 306 309 313
163 161 166 163 165 168 170 158 163 176 174 175 173 170 173 170 178 178 170 171 174 176 175 182 201 207 234 256 273 287 299 302 302 305 303 297 293 304 318 319 314 314 316
129 130 129 133 138 141 150 153 158 164 165 165 166 166 164 165 170 163 166 171 173 172 181 196 206 240 257 278 295 307 315 323 344 11 343 1 337 321 317 321 319 320 320
88 114 126 126 136 144 145 144 149 153 158 160 160 157 156 159 161 166 165 169 168 174 187 205 238 265 302 328 337 350 5 26 77 98 304 321 319 322 321 331 336 331 323
77 99 113 122 130 139 142 147 149 151 152 152 150 151 154 155 157 156 161 166 174 182 198 216 251 333 6 24 30 49 44 61 65 147 251 331 340 336 332 343 357 0 6
84 97 106 116 124 128 139 139 141 143 144 145 146 149 151 150 151 156 165 172 174 176 168 140 79 54 69 68 66 53 27 24 48 61 29 333 329 336 346 7 8 19 13
107 109 117 118 114 121 129 137 136 139 139 140 140 141 146 148 153 160 163 158 156 147 131 107 100 93 91 89 72 14 352 355 9 17 354 347 335 351 10 12 10 17 7
116 116 124 131 129 122 131 134 132 133 132 133 135 137 141 148 153 153 151 145 142 135 121 123 119 110 93 88 56 30 14 350 326 326 346 343 11 11 7 355 346 346 344
119 124 123 129 136 132 126 126 127 125 129 133 134 137 140 144 147 149 150 151 151 145 136 133 120 107 91 76 59 38 13 16 327 36 47 55 52 357 353 346 337 336 330
119 120 117 115 121 129 124 113 115 122 129 131 131 131 133 139 146 154 149 148 146 149 145 139 118 87 69 55 55 38 25 57 77 83 78 58 7 330 331 333 331 330 327
116 120 123 120 119 121 115 109 112 117 120 122 123 129 133 137 148 154 150 147 146 144 142 141 99 79 59 64 62 58 88 92 88 76 51 18 344 345 354 1 3 3 3
116 117 116 113 109 108 103 100 102 105 114 119 122 126 137 144 148 152 151 150 155 165 160 132 102 87 91 95 89 84 82 99 89 3 351 8 26 38 36 29 22 15 13
117 115 107 104 104 105 102 102 103 108 118 127 133 137 144 145 154 156 160 167 169 176 181 154 139 122 127 111 98 90 86 62 51 64 77 71 57 43 31 24 16 13 22
111 106 104 101 98 96 97 100 102 114 129 129 124 120 137 145 145 161 171 169 170 165 159 143 133 120 105 97 93 80 78 84 83 79 70 59 45 32 21 17 18 23 34